Location: Gleizolles
(44.4833°N, 6.7667°E)
Time: 10:15:22
(UTC+00:00)

Vanguard 2 Rocket - Visible Passes

Search period start: 21 June 2024 00:00
Search period end: 01 July 2024 00:00
Orbit: 555 x 3304 km, 32.9° (Epoch: 20 June)

Date Brightness Start Highest point End Pass type
(mag) Time Alt. Az. Time Alt. Az. Time Alt. Az.
21 Jun 9.9 01:34:12 20° SSW 01:47:18 41° SSE 02:03:07 10° E visible
21 Jun 10.6 22:28:53 11° SE 22:29:02 11° SE 22:34:01 10° ESE visible
22 Jun 10.0 00:34:22 25° S 00:43:03 34° SSE 00:58:49 10° E visible
22 Jun 9.8 02:40:05 10° SW 02:59:05 52° SSE 03:14:45 10° E visible
22 Jun 10.1 23:34:27 24° SSE 23:39:09 26° SE 23:53:30 10° E visible
23 Jun 9.8 01:39:55 18° SW 01:54:29 47° SSE 02:11:13 10° E visible
23 Jun 10.3 22:34:28 17° SE 22:35:41 18° SE 22:46:30 10° E visible
24 Jun 9.9 00:39:55 26° SSW 00:50:03 41° SSE 01:07:03 10° E visible
24 Jun 9.7 02:47:15 10° WSW 03:06:28 56° S 03:22:39 10° ESE visible
24 Jun 9.8 23:39:51 28° S 23:45:57 33° SE 00:02:06 10° E visible
25 Jun 9.7 01:45:17 15° SW 02:01:44 53° SSE 02:19:07 10° E visible
25 Jun 10.0 22:39:40 23° SSE 22:42:20 24° SE 22:56:05 10° E visible
26 Jun 9.7 00:45:06 23° SSW 00:57:06 47° SSE 01:15:00 10° E visible
26 Jun 9.7 02:54:37 10° WSW 03:13:51 58° S 03:30:26 10° ESE visible
26 Jun 10.2 21:39:22 15° SE 21:39:22 15° SE 21:48:05 10° E visible
26 Jun 9.7 23:44:48 28° S 23:52:49 39° SSE 00:10:14 10° E visible
27 Jun 9.7 01:50:39 10° WSW 02:09:01 56° S 02:26:53 10° E visible
27 Jun 9.7 22:44:19 27° SSE 22:49:02 30° SE 23:04:40 10° E visible
28 Jun 9.6 00:49:43 17° SW 01:04:15 52° SSE 01:22:47 10° E visible
28 Jun 9.7 03:02:06 10° WSW 03:21:12 58° S 03:38:04 10° ESE visible
28 Jun 9.8 21:43:34 21° SE 21:45:48 21° SE 21:57:58 10° E visible
28 Jun 9.6 23:48:57 23° SSW 23:59:47 45° SSE 00:18:05 10° E visible
29 Jun 9.7 01:58:04 10° WSW 02:16:18 58° S 02:34:33 10° ESE visible
29 Jun 10.0 20:42:19 12° SE 20:43:06 12° SE 20:48:32 10° ESE visible
29 Jun 9.6 22:47:37 24° S 22:55:49 37° SSE 23:12:45 10° E visible
30 Jun 9.6 00:54:40 10° WSW 01:11:27 56° S 01:30:26 10° E visible
30 Jun 9.7 03:09:41 10° W 03:28:28 55° SSW 03:45:32 10° ESE visible
30 Jun 9.7 21:43:55 16° S 21:52:27 27° SE 22:06:38 10° E visible
